Regional Weather Roundup
Issued by NWS

Home | Current Version | Previous Version | Text Only | Print | Product List | Glossary Off
Versions: 1 2 3 4 5 6 7 8 9 10 11 12 13 14 15 16 17 18 19 20 21 22 23 24 25 26 27 28 29 30 31 32 33 34 35 36 37 38 39 40 41 42 43 44 45 46 47 48 49 50

658
ASUS44 KJAN 191103
RWRMS

MISSISSIPPI HOURLY WEATHER ROUNDUP
NATIONAL WEATHER SERVICE JACKSON MS
600 AM CDT SUN APR 19 2015

NOTE: "FAIR: INDICATES FEW OR NO CLOUDS BELOW 12,000 FEET WITH NO
SIGNIFICANT WEATHER AND/OR OBSTRUCTIONS TO VISIBILITY.

MSZ001>002-007>008-010>013-018>021-025>028-034>036-191200-
NORTHWEST MISSISSIPPI

CITY           SKY/WX    TMP DP  RH WIND       PRES   REMARKS
CLARKSDALE     CLOUDY    66  66 100 S12       29.68S
CLEVELAND      CLOUDY    66  66 100 SW9       29.69S FOG
GREENWOOD      CLOUDY    65  62  90 S9        29.72R
GREENVILLE     CLOUDY    67  65  93 SW10      29.72R
OLIVE BRANCH   CLOUDY    63 N/A N/A S8        29.67F
OXFORD         CLOUDY    63  63 100 SW6       29.71S
TUNICA         RAIN      64  63  94 CALM      29.67F
$$

MSZ003>006-009-014>017-022>024-029>033-037>039-191200-
NORTHEAST MISSISSIPPI

CITY           SKY/WX    TMP DP  RH WIND       PRES   REMARKS
COLUMBUS AFB   CLOUDY    64  64 100 SW6       29.72R
CORINTH        DRIZZLE   66  64  94 CALM      29.67S
GOLDN TRIANGLE CLOUDY    64  63  94 SW7       29.72F
STARKVILLE     PTSUNNY   63  63 100 S3        29.73S
TUPELO         CLOUDY    64  62  93 SW6       29.69F
$$

MSZ040-058-191200-
CENTRAL MISSISSIPPI

CITY           SKY/WX    TMP DP  RH WIND       PRES   REMARKS
JACKSON INTL   CLOUDY    68  66  93 S9        29.74F
JACKSON HAWKNS CLOUDY    68  65  90 SW7       29.75S
MERIDIAN KEY   CLOUDY    66  64  93 SW5       29.77R
MERIDIAN NAS   LGT RAIN  65  63  93 W5        29.76F
RAYMOND        CLOUDY    68  63  83 VRB5G12   29.74S
VICKSBURG      LGT RAIN  66  62  87 SW6       29.74S
$$

MSZ059>079-191200-
SOUTH MISSISSIPPI

CITY           SKY/WX    TMP DP  RH WIND       PRES   REMARKS
BROOKHAVEN       N/A     70  70 100 S8        29.78F
HATTIESBURG    CLOUDY    71  68  90 SW5       29.79S FOG
MCCOMB         CLOUDY    69  67  93 SW7       29.78F
NATCHEZ        CLOUDY    68  64  88 SW8       29.74F
PINE BELT      CLOUDY    70  -6   5 SW7       29.79F
$$

MSZ080>082-191200-
COASTAL MISSISSIPPI

CITY           SKY/WX    TMP DP  RH WIND       PRES   REMARKS
BILOXI         CLOUDY    73  73 100 W6        29.76F
PASCAGOULA     CLOUDY    72  71  97 CALM      29.75F
GULFPORT       CLOUDY    73  70  90 W3        29.76F
$$



USA.gov is the U.S. government's official web portal to all federal, state and local government web resources and services.